Time,TemperatureF,DewpointF,PressureIn,WindDirection,WindDirectionDegrees,WindSpeedMPH,WindSpeedGustMPH,Humidity,HourlyPrecipIn,Conditions,Clouds,dailyrainin,SoftwareType,DateUTC
2013-09-06 00:04:00,71.7,41.0,29.98,ENE,58,0.0,0.0,33,0.00,,,0.00,WeatherTracker,2013-09-06 06:04:00,
2013-09-06 00:09:00,71.4,41.6,29.98,ENE,58,0.0,0.0,34,0.00,,,0.00,WeatherTracker,2013-09-06 06:09:00,
2013-09-06 00:14:00,71.6,43.2,29.98,ENE,58,0.0,0.0,36,0.00,,,0.00,WeatherTracker,2013-09-06 06:14:00,
2013-09-06 00:19:00,71.3,42.2,29.98,ENE,58,0.0,0.0,35,0.00,,,0.00,WeatherTracker,2013-09-06 06:19:00,
2013-09-06 00:24:00,70.9,42.6,29.98,ENE,58,0.0,0.0,36,0.00,,,0.00,WeatherTracker,2013-09-06 06:24:00,
2013-09-06 00:29:00,71.0,42.7,29.98,ENE,58,0.0,0.0,36,0.00,,,0.00,WeatherTracker,2013-09-06 06:29:00,
2013-09-06 00:34:00,71.0,42.0,29.99,ENE,58,0.0,0.0,35,0.00,,,0.00,WeatherTracker,2013-09-06 06:34:00,
2013-09-06 00:39:00,71.2,42.9,29.99,ENE,58,0.0,0.0,36,0.00,,,0.00,WeatherTracker,2013-09-06 06:39:00,
2013-09-06 00:44:00,70.6,42.3,29.99,ENE,58,0.0,0.0,36,0.00,,,0.00,WeatherTracker,2013-09-06 06:44:00,
2013-09-06 00:49:00,69.8,43.7,29.99,ENE,58,0.0,0.0,39,0.00,,,0.00,WeatherTracker,2013-09-06 06:49:00,
2013-09-06 00:54:00,69.5,43.4,29.99,ENE,58,1.0,0.0,39,0.00,,,0.00,WeatherTracker,2013-09-06 06:54:00,
2013-09-06 00:59:00,69.3,43.3,29.99,ENE,58,0.0,1.0,39,0.00,,,0.00,WeatherTracker,2013-09-06 06:59:00,
2013-09-06 01:04:00,69.4,42.7,29.99,ENE,58,0.0,1.0,38,0.00,,,0.00,WeatherTracker,2013-09-06 07:04:00,
2013-09-06 01:09:00,70.1,42.6,29.99,ENE,58,0.0,0.0,37,0.00,,,0.00,WeatherTracker,2013-09-06 07:09:00,
2013-09-06 01:14:00,70.2,42.0,29.99,ENE,58,0.0,0.0,36,0.00,,,0.00,WeatherTracker,2013-09-06 07:14:00,
2013-09-06 01:20:00,69.5,42.1,29.99,ENE,58,0.0,0.0,37,0.00,,,0.00,WeatherTracker,2013-09-06 07:20:00,
2013-09-06 01:25:00,68.9,42.9,29.99,ENE,58,0.0,0.0,39,0.00,,,0.00,WeatherTracker,2013-09-06 07:25:00,
2013-09-06 01:30:00,69.1,42.4,30.00,ENE,58,0.0,0.0,38,0.00,,,0.00,WeatherTracker,2013-09-06 07:30:00,
2013-09-06 01:35:00,69.3,43.3,30.00,ENE,58,0.0,0.0,39,0.00,,,0.00,WeatherTracker,2013-09-06 07:35:00,
2013-09-06 01:40:00,68.8,42.8,30.00,ENE,58,0.0,0.0,39,0.00,,,0.00,WeatherTracker,2013-09-06 07:40:00,
2013-09-06 01:45:00,68.3,43.0,30.00,ENE,58,0.0,0.0,40,0.00,,,0.00,WeatherTracker,2013-09-06 07:45:00,
2013-09-06 01:50:00,67.9,44.0,30.00,ENE,58,0.0,0.0,42,0.00,,,0.00,WeatherTracker,2013-09-06 07:50:00,
2013-09-06 01:55:00,68.3,41.7,30.00,ESE,105,1.0,4.0,38,0.00,,,0.00,WeatherTracker,2013-09-06 07:55:00,
2013-09-06 02:00:00,69.6,40.7,30.00,ESE,105,0.0,4.0,35,0.00,,,0.00,WeatherTracker,2013-09-06 08:00:00,
2013-09-06 02:05:00,69.4,40.6,30.00,ESE,105,0.0,2.0,35,0.00,,,0.00,WeatherTracker,2013-09-06 08:05:00,
2013-09-06 02:10:00,69.2,41.8,30.00,ESE,105,0.0,0.0,37,0.00,,,0.00,WeatherTracker,2013-09-06 08:10:00,
2013-09-06 02:15:00,68.6,42.6,30.01,ESE,105,0.0,0.0,39,0.00,,,0.00,WeatherTracker,2013-09-06 08:15:00,
2013-09-06 02:20:00,68.1,42.2,30.01,ESE,105,0.0,1.0,39,0.00,,,0.00,WeatherTracker,2013-09-06 08:20:00,
2013-09-06 02:25:00,68.5,40.5,30.01,ESE,105,0.0,1.0,36,0.00,,,0.00,WeatherTracker,2013-09-06 08:25:00,
2013-09-06 02:30:00,68.8,41.5,30.01,ESE,105,0.0,1.0,37,0.00,,,0.00,WeatherTracker,2013-09-06 08:30:00,
2013-09-06 02:35:00,68.1,42.9,30.01,ESE,105,0.0,1.0,40,0.00,,,0.00,WeatherTracker,2013-09-06 08:35:00,
2013-09-06 02:40:00,68.1,41.5,30.01,ESE,105,0.0,0.0,38,0.00,,,0.00,WeatherTracker,2013-09-06 08:40:00,
2013-09-06 02:45:00,67.6,42.4,30.01,ESE,105,0.0,0.0,40,0.00,,,0.00,WeatherTracker,2013-09-06 08:45:00,
2013-09-06 02:50:00,67.3,42.8,30.00,ESE,106,0.0,0.0,41,0.00,,,0.00,WeatherTracker,2013-09-06 08:50:00,
2013-09-06 02:55:00,67.0,42.5,30.01,ESE,105,0.0,0.0,41,0.00,,,0.00,WeatherTracker,2013-09-06 08:55:00,
2013-09-06 03:00:00,66.8,41.7,30.01,ESE,105,0.0,0.0,40,0.00,,,0.00,WeatherTracker,2013-09-06 09:00:00,
2013-09-06 03:05:00,66.6,42.8,30.01,ESE,105,0.0,0.0,42,0.00,,,0.00,WeatherTracker,2013-09-06 09:05:00,
2013-09-06 03:10:00,66.4,42.6,30.00,ESE,105,0.0,0.0,42,0.00,,,0.00,WeatherTracker,2013-09-06 09:10:00,
2013-09-06 03:15:00,66.0,43.5,30.00,ESE,105,0.0,0.0,44,0.00,,,0.00,WeatherTracker,2013-09-06 09:15:00,
2013-09-06 03:20:00,66.1,42.9,30.00,ESE,105,0.0,0.0,43,0.00,,,0.00,WeatherTracker,2013-09-06 09:20:00,
2013-09-06 03:25:00,66.6,42.2,30.01,ESE,105,0.0,0.0,41,0.00,,,0.00,WeatherTracker,2013-09-06 09:25:00,
2013-09-06 03:30:00,67.6,41.1,30.00,ESE,105,0.0,0.0,38,0.00,,,0.00,WeatherTracker,2013-09-06 09:30:00,
2013-09-06 03:35:00,67.8,41.3,30.00,ESE,105,0.0,0.0,38,0.00,,,0.00,WeatherTracker,2013-09-06 09:35:00,
2013-09-06 03:40:00,67.0,41.9,30.00,ESE,105,0.0,0.0,40,0.00,,,0.00,WeatherTracker,2013-09-06 09:40:00,
2013-09-06 03:46:00,66.2,42.4,30.00,ESE,105,0.0,0.0,42,0.00,,,0.00,WeatherTracker,2013-09-06 09:46:00,
2013-09-06 03:51:00,66.3,41.9,30.00,ESE,105,0.0,0.0,41,0.00,,,0.00,WeatherTracker,2013-09-06 09:51:00,
2013-09-06 03:56:00,66.7,41.6,30.00,ESE,105,0.0,0.0,40,0.00,,,0.00,WeatherTracker,2013-09-06 09:56:00,
2013-09-06 04:01:00,66.7,41.0,30.00,ESE,105,0.0,0.0,39,0.00,,,0.00,WeatherTracker,2013-09-06 10:01:00,
2013-09-06 04:06:00,66.6,41.5,30.00,ESE,105,0.0,0.0,40,0.00,,,0.00,WeatherTracker,2013-09-06 10:06:00,
2013-09-06 04:11:00,66.3,41.2,30.00,ESE,105,0.0,0.0,40,0.00,,,0.00,WeatherTracker,2013-09-06 10:11:00,
2013-09-06 04:16:00,66.3,41.2,30.00,ESE,105,0.0,0.0,40,0.00,,,0.00,WeatherTracker,2013-09-06 10:16:00,
2013-09-06 04:21:00,66.3,41.2,30.00,ESE,105,0.0,0.0,40,0.00,,,0.00,WeatherTracker,2013-09-06 10:21:00,
2013-09-06 04:26:00,65.9,40.9,30.00,ESE,105,0.0,0.0,40,0.00,,,0.00,WeatherTracker,2013-09-06 10:26:00,
2013-09-06 04:31:00,65.7,40.7,30.00,ESE,105,0.0,0.0,40,0.00,,,0.00,WeatherTracker,2013-09-06 10:31:00,
2013-09-06 04:36:00,65.2,41.5,30.00,ESE,105,0.0,0.0,42,0.00,,,0.00,WeatherTracker,2013-09-06 10:36:00,
2013-09-06 04:41:00,65.4,41.1,30.01,ESE,105,0.0,0.0,41,0.00,,,0.00,WeatherTracker,2013-09-06 10:41:00,
2013-09-06 04:46:00,65.9,40.2,30.01,ESE,105,0.0,0.0,39,0.00,,,0.00,WeatherTracker,2013-09-06 10:46:00,
2013-09-06 04:51:00,65.3,41.0,30.00,ESE,105,0.0,0.0,41,0.00,,,0.00,WeatherTracker,2013-09-06 10:51:00,
2013-09-06 04:56:00,65.3,41.0,30.00,ESE,105,0.0,0.0,41,0.00,,,0.00,WeatherTracker,2013-09-06 10:56:00,
2013-09-06 05:01:00,65.0,40.7,30.01,ESE,105,0.0,1.0,41,0.00,,,0.00,WeatherTracker,2013-09-06 11:01:00,
2013-09-06 05:06:00,64.8,40.5,30.01,ESE,105,0.0,1.0,41,0.00,,,0.00,WeatherTracker,2013-09-06 11:06:00,
2013-09-06 05:11:00,64.0,41.1,30.00,ESE,105,0.0,0.0,43,0.00,,,0.00,WeatherTracker,2013-09-06 11:11:00,
2013-09-06 05:16:00,63.9,42.1,30.01,ESE,105,0.0,0.0,45,0.00,,,0.00,WeatherTracker,2013-09-06 11:16:00,
2013-09-06 05:21:00,63.7,42.0,30.01,ESE,105,0.0,0.0,45,0.00,,,0.00,WeatherTracker,2013-09-06 11:21:00,
2013-09-06 05:26:00,63.4,41.7,30.01,ESE,105,0.0,0.0,45,0.00,,,0.00,WeatherTracker,2013-09-06 11:26:00,
2013-09-06 05:31:00,63.5,41.8,30.01,ESE,105,0.0,0.0,45,0.00,,,0.00,WeatherTracker,2013-09-06 11:31:00,
2013-09-06 05:36:00,63.4,41.7,30.01,ESE,105,0.0,0.0,45,0.00,,,0.00,WeatherTracker,2013-09-06 11:36:00,
2013-09-06 05:41:00,62.9,42.4,30.01,ESE,105,0.0,0.0,47,0.00,,,0.00,WeatherTracker,2013-09-06 11:41:00,
2013-09-06 05:47:00,63.0,42.4,30.01,ESE,105,0.0,0.0,47,0.00,,,0.00,WeatherTracker,2013-09-06 11:47:00,
2013-09-06 05:52:00,63.1,41.4,30.01,ESE,105,0.0,1.0,45,0.00,,,0.00,WeatherTracker,2013-09-06 11:52:00,
2013-09-06 05:57:00,63.0,41.9,30.01,ESE,105,0.0,1.0,46,0.00,,,0.00,WeatherTracker,2013-09-06 11:57:00,
2013-09-06 06:02:00,62.7,42.7,30.01,ESE,105,0.0,1.0,48,0.00,,,0.00,WeatherTracker,2013-09-06 12:02:00,
2013-09-06 06:07:00,62.6,42.6,30.01,ESE,105,0.0,1.0,48,0.00,,,0.00,WeatherTracker,2013-09-06 12:07:00,
2013-09-06 06:12:00,62.5,43.1,30.01,ESE,105,0.0,0.0,49,0.00,,,0.00,WeatherTracker,2013-09-06 12:12:00,
2013-09-06 06:17:00,62.3,42.9,30.01,ESE,105,0.0,0.0,49,0.00,,,0.00,WeatherTracker,2013-09-06 12:17:00,
2013-09-06 06:22:00,62.0,43.1,30.01,ESE,105,0.0,1.0,50,0.00,,,0.00,WeatherTracker,2013-09-06 12:22:00,
2013-09-06 06:27:00,61.9,42.5,30.01,ESE,105,0.0,1.0,49,0.00,,,0.00,WeatherTracker,2013-09-06 12:27:00,
2013-09-06 06:32:00,62.1,42.7,30.02,ESE,105,0.0,0.0,49,0.00,,,0.00,WeatherTracker,2013-09-06 12:32:00,
2013-09-06 06:37:00,62.2,42.8,30.02,ESE,105,0.0,0.0,49,0.00,,,0.00,WeatherTracker,2013-09-06 12:37:00,
2013-09-06 06:42:00,62.1,42.7,30.02,ESE,105,0.0,0.0,49,0.00,,,0.00,WeatherTracker,2013-09-06 12:42:00,
2013-09-06 06:47:00,61.9,42.5,30.02,ESE,105,0.0,0.0,49,0.00,,,0.00,WeatherTracker,2013-09-06 12:47:00,
2013-09-06 06:52:00,62.0,42.6,30.02,ESE,105,0.0,0.0,49,0.00,,,0.00,WeatherTracker,2013-09-06 12:52:00,
2013-09-06 06:57:00,61.9,43.1,30.02,ESE,105,0.0,0.0,50,0.00,,,0.00,WeatherTracker,2013-09-06 12:57:00,
2013-09-06 07:02:00,61.8,43.0,30.02,ESE,105,0.0,0.0,50,0.00,,,0.00,WeatherTracker,2013-09-06 13:02:00,
2013-09-06 07:07:00,61.7,42.9,30.03,ESE,105,0.0,0.0,50,0.00,,,0.00,WeatherTracker,2013-09-06 13:07:00,
2013-09-06 07:12:00,62.0,43.1,30.02,ESE,105,0.0,0.0,50,0.00,,,0.00,WeatherTracker,2013-09-06 13:12:00,
2013-09-06 07:17:00,62.3,43.4,30.03,ESE,105,0.0,0.0,50,0.00,,,0.00,WeatherTracker,2013-09-06 13:17:00,
2013-09-06 07:22:00,63.1,43.6,30.03,ESE,105,0.0,0.0,49,0.00,,,0.00,WeatherTracker,2013-09-06 13:22:00,
2013-09-06 07:27:00,63.6,43.5,30.03,ESE,105,0.0,1.0,48,0.00,,,0.00,WeatherTracker,2013-09-06 13:27:00,
2013-09-06 07:32:00,64.4,43.2,30.03,ESE,105,0.0,1.0,46,0.00,,,0.00,WeatherTracker,2013-09-06 13:32:00,
2013-09-06 07:37:00,65.0,42.6,30.03,ESE,105,0.0,1.0,44,0.00,,,0.00,WeatherTracker,2013-09-06 13:37:00,
2013-09-06 07:42:00,65.6,42.5,30.03,ESE,105,0.0,1.0,43,0.00,,,0.00,WeatherTracker,2013-09-06 13:42:00,
2013-09-06 07:47:00,66.2,43.0,30.03,ESE,105,0.0,1.0,43,0.00,,,0.00,WeatherTracker,2013-09-06 13:47:00,
2013-09-06 07:52:00,66.7,42.9,30.03,ESE,105,0.0,1.0,42,0.00,,,0.00,WeatherTracker,2013-09-06 13:52:00,
2013-09-06 07:57:00,66.9,43.7,30.04,ESE,105,0.0,1.0,43,0.00,,,0.00,WeatherTracker,2013-09-06 13:57:00,
2013-09-06 08:02:00,67.4,43.5,30.04,ESE,106,0.0,1.0,42,0.00,,,0.00,WeatherTracker,2013-09-06 14:02:00,
2013-09-06 08:07:00,68.0,43.4,30.03,ESE,106,0.0,1.0,41,0.00,,,0.00,WeatherTracker,2013-09-06 14:07:00,
2013-09-06 08:12:00,68.6,44.0,30.03,ESE,106,0.0,1.0,41,0.00,,,0.00,WeatherTracker,2013-09-06 14:12:00,
2013-09-06 08:17:00,69.2,42.5,30.03,ESE,106,0.0,1.0,38,0.00,,,0.00,WeatherTracker,2013-09-06 14:17:00,
2013-09-06 08:23:00,69.8,43.0,30.03,ESE,108,0.0,1.0,38,0.00,,,0.00,WeatherTracker,2013-09-06 14:23:00,
2013-09-06 08:28:00,70.3,42.8,30.03,West,261,0.0,3.0,37,0.00,,,0.00,WeatherTracker,2013-09-06 14:28:00,
2013-09-06 08:33:00,70.9,42.6,30.03,West,263,1.0,3.0,36,0.00,,,0.00,WeatherTracker,2013-09-06 14:33:00,
2013-09-06 08:38:00,71.5,42.4,30.03,WNW,284,0.0,2.0,35,0.00,,,0.00,WeatherTracker,2013-09-06 14:38:00,
2013-09-06 08:43:00,71.9,43.5,30.03,WNW,284,0.0,2.0,36,0.00,,,0.00,WeatherTracker,2013-09-06 14:43:00,
2013-09-06 08:48:00,72.4,42.4,30.03,WNW,284,0.0,2.0,34,0.00,,,0.00,WeatherTracker,2013-09-06 14:48:00,
2013-09-06 08:53:00,72.6,42.6,30.03,WNW,284,0.0,2.0,34,0.00,,,0.00,WeatherTracker,2013-09-06 14:53:00,
2013-09-06 08:58:00,72.8,42.8,30.03,WNW,284,0.0,2.0,34,0.00,,,0.00,WeatherTracker,2013-09-06 14:58:00,
2013-09-06 09:03:00,73.1,42.3,30.03,West,262,0.0,2.0,33,0.00,,,0.00,WeatherTracker,2013-09-06 15:03:00,
2013-09-06 09:08:00,73.3,42.4,30.04,West,262,0.0,2.0,33,0.00,,,0.00,WeatherTracker,2013-09-06 15:08:00,
2013-09-06 09:13:00,73.4,43.3,30.04,WSW,253,0.0,2.0,34,0.00,,,0.00,WeatherTracker,2013-09-06 15:13:00,
2013-09-06 09:18:00,73.8,42.1,30.04,South,191,2.0,2.0,32,0.00,,,0.00,WeatherTracker,2013-09-06 15:18:00,
2013-09-06 09:23:00,74.3,42.5,30.04,SSE,160,1.0,2.0,32,0.00,,,0.00,WeatherTracker,2013-09-06 15:23:00,
2013-09-06 09:28:00,74.8,43.0,30.04,SSE,165,1.0,2.0,32,0.00,,,0.00,WeatherTracker,2013-09-06 15:28:00,
2013-09-06 09:33:00,75.6,42.8,30.04,South,180,1.0,2.0,31,0.00,,,0.00,WeatherTracker,2013-09-06 15:33:00,
2013-09-06 09:38:00,75.4,41.8,30.04,South,178,0.0,2.0,30,0.00,,,0.00,WeatherTracker,2013-09-06 15:38:00,
2013-09-06 09:43:00,76.7,42.9,30.04,SSW,207,0.0,3.0,30,0.00,,,0.00,WeatherTracker,2013-09-06 15:43:00,
2013-09-06 09:48:00,77.0,43.2,30.04,SW,220,0.0,3.0,30,0.00,,,0.00,WeatherTracker,2013-09-06 15:48:00,
2013-09-06 09:53:00,77.1,43.3,30.03,SSE,152,2.0,2.0,30,0.00,,,0.00,WeatherTracker,2013-09-06 15:53:00,
2013-09-06 09:58:00,76.9,43.1,30.03,SE,124,3.0,3.0,30,0.00,,,0.00,WeatherTracker,2013-09-06 15:58:00,
2013-09-06 10:03:00,77.6,44.5,30.04,WSW,244,0.0,3.0,31,0.00,,,0.00,WeatherTracker,2013-09-06 16:03:00,
2013-09-06 10:08:00,78.0,43.1,30.03,ESE,109,1.0,3.0,29,0.00,,,0.00,WeatherTracker,2013-09-06 16:08:00,
2013-09-06 10:13:00,78.4,43.5,30.03,ENE,58,0.0,2.0,29,0.00,,,0.00,WeatherTracker,2013-09-06 16:13:00,
2013-09-06 10:18:00,78.9,45.7,30.03,ESE,103,0.0,2.0,31,0.00,,,0.00,WeatherTracker,2013-09-06 16:18:00,
2013-09-06 10:23:00,79.8,42.8,30.02,SSE,149,0.0,3.0,27,0.00,,,0.00,WeatherTracker,2013-09-06 16:23:00,
2013-09-06 10:29:00,80.0,43.9,30.02,SE,130,1.0,3.0,28,0.00,,,0.00,WeatherTracker,2013-09-06 16:29:00,
2013-09-06 10:34:00,81.4,44.2,30.02,SE,130,1.0,2.0,27,0.00,,,0.00,WeatherTracker,2013-09-06 16:34:00,
2013-09-06 10:39:00,81.0,42.9,30.02,SE,134,0.0,3.0,26,0.00,,,0.00,WeatherTracker,2013-09-06 16:39:00,
2013-09-06 10:44:00,82.1,42.8,30.03,SSE,161,4.0,4.0,25,0.00,,,0.00,WeatherTracker,2013-09-06 16:44:00,
2013-09-06 10:49:00,82.1,42.8,30.03,SSE,153,1.0,5.0,25,0.00,,,0.00,WeatherTracker,2013-09-06 16:49:00,
2013-09-06 10:54:00,82.4,44.0,30.03,East,86,0.0,5.0,26,0.00,,,0.00,WeatherTracker,2013-09-06 16:54:00,
2013-09-06 10:59:00,82.0,42.7,30.03,ESE,111,1.0,6.0,25,0.00,,,0.00,WeatherTracker,2013-09-06 16:59:00,
2013-09-06 11:04:00,82.7,43.3,30.02,East,92,3.0,7.0,25,0.00,,,0.00,WeatherTracker,2013-09-06 17:04:00,
2013-09-06 11:09:00,82.5,44.1,30.02,SE,138,2.0,7.0,26,0.00,,,0.00,WeatherTracker,2013-09-06 17:09:00,
2013-09-06 11:14:00,82.8,43.4,30.02,ESE,103,1.0,7.0,25,0.00,,,0.00,WeatherTracker,2013-09-06 17:14:00,
2013-09-06 11:19:00,83.4,42.8,30.02,ESE,105,1.0,5.0,24,0.00,,,0.00,WeatherTracker,2013-09-06 17:19:00,
2013-09-06 11:24:00,84.0,42.2,30.02,ENE,70,1.0,6.0,23,0.00,,,0.00,WeatherTracker,2013-09-06 17:24:00,
2013-09-06 11:29:00,83.9,43.2,30.01,ESE,123,2.0,6.0,24,0.00,,,0.00,WeatherTracker,2013-09-06 17:29:00,
2013-09-06 11:34:00,84.3,42.4,30.01,ENE,68,0.0,6.0,23,0.00,,,0.00,WeatherTracker,2013-09-06 17:34:00,
2013-09-06 11:39:00,84.8,42.9,30.01,SSE,164,2.0,8.0,23,0.00,,,0.00,WeatherTracker,2013-09-06 17:39:00,
2013-09-06 11:45:00,85.3,43.3,30.00,ENE,77,3.0,8.0,23,0.00,,,0.00,WeatherTracker,2013-09-06 17:45:00,
2013-09-06 11:50:00,85.8,43.7,30.00,ESE,121,1.0,8.0,23,0.00,,,0.00,WeatherTracker,2013-09-06 17:50:00,
2013-09-06 11:55:00,85.2,42.0,30.00,North,5,1.0,6.0,22,0.00,,,0.00,WeatherTracker,2013-09-06 17:55:00,
2013-09-06 12:00:00,85.2,42.0,30.00,ESE,121,1.0,6.0,22,0.00,,,0.00,WeatherTracker,2013-09-06 18:00:00,
2013-09-06 12:05:00,86.8,43.4,29.99,East,94,0.0,7.0,22,0.00,,,0.00,WeatherTracker,2013-09-06 18:05:00,
2013-09-06 12:10:00,87.4,45.0,29.99,East,94,5.0,7.0,23,0.00,,,0.00,WeatherTracker,2013-09-06 18:10:00,
2013-09-06 12:15:00,86.8,43.4,29.99,SSE,161,3.0,5.0,22,0.00,,,0.00,WeatherTracker,2013-09-06 18:15:00,
2013-09-06 12:20:00,85.8,43.7,29.99,SE,133,3.0,8.0,23,0.00,,,0.00,WeatherTracker,2013-09-06 18:20:00,
2013-09-06 12:25:00,86.8,40.9,29.99,ESE,109,4.0,8.0,20,0.00,,,0.00,WeatherTracker,2013-09-06 18:25:00,
2013-09-06 12:30:00,87.1,42.4,29.99,SE,139,0.0,7.0,21,0.00,,,0.00,WeatherTracker,2013-09-06 18:30:00,
2013-09-06 12:35:00,88.0,43.1,29.98,SE,142,3.0,7.0,21,0.00,,,0.00,WeatherTracker,2013-09-06 18:35:00,
2013-09-06 12:40:00,87.4,42.6,29.98,ESE,115,1.0,5.0,21,0.00,,,0.00,WeatherTracker,2013-09-06 18:40:00,
2013-09-06 12:45:00,87.6,41.5,29.98,SSE,150,2.0,5.0,20,0.00,,,0.00,WeatherTracker,2013-09-06 18:45:00,
2013-09-06 12:50:00,87.7,42.9,29.97,North,351,1.0,5.0,21,0.00,,,0.00,WeatherTracker,2013-09-06 18:50:00,
2013-09-06 12:55:00,89.1,42.8,29.97,NW,322,0.0,5.0,20,0.00,,,0.00,WeatherTracker,2013-09-06 18:55:00,
2013-09-06 13:00:00,88.8,42.5,29.97,ESE,108,2.0,7.0,20,0.00,,,0.00,WeatherTracker,2013-09-06 19:00:00,
2013-09-06 13:05:00,88.3,42.1,29.96,North,5,2.0,7.0,20,0.00,,,0.00,WeatherTracker,2013-09-06 19:05:00,
2013-09-06 13:10:00,88.3,43.4,29.96,SE,124,3.0,7.0,21,0.00,,,0.00,WeatherTracker,2013-09-06 19:10:00,
2013-09-06 13:15:00,88.7,42.4,29.96,SE,138,3.0,7.0,20,0.00,,,0.00,WeatherTracker,2013-09-06 19:15:00,
2013-09-06 13:20:00,88.2,44.5,29.95,ENE,74,0.0,7.0,22,0.00,,,0.00,WeatherTracker,2013-09-06 19:20:00,
2013-09-06 13:25:00,88.2,40.7,29.95,ESE,108,3.0,7.0,19,0.00,,,0.00,WeatherTracker,2013-09-06 19:25:00,
2013-09-06 13:31:00,88.2,42.0,29.95,North,5,5.0,7.0,20,0.00,,,0.00,WeatherTracker,2013-09-06 19:31:00,
2013-09-06 13:36:00,88.7,42.4,29.95,East,88,6.0,9.0,20,0.00,,,0.00,WeatherTracker,2013-09-06 19:36:00,
2013-09-06 13:41:00,89.1,42.8,29.95,East,97,3.0,9.0,20,0.00,,,0.00,WeatherTracker,2013-09-06 19:41:00,
2013-09-06 13:46:00,89.1,45.3,29.94,NW,318,0.0,9.0,22,0.00,,,0.00,WeatherTracker,2013-09-06 19:46:00,
2013-09-06 13:51:00,89.4,43.0,29.94,ESE,119,2.0,7.0,20,0.00,,,0.00,WeatherTracker,2013-09-06 19:51:00,
2013-09-06 13:56:00,89.4,41.7,29.93,North,355,3.0,6.0,19,0.00,,,0.00,WeatherTracker,2013-09-06 19:56:00,
2013-09-06 14:01:00,89.2,42.8,29.93,North,355,3.0,6.0,20,0.00,,,0.00,WeatherTracker,2013-09-06 20:01:00,
2013-09-06 14:06:00,89.1,41.4,29.93,NE,51,1.0,7.0,19,0.00,,,0.00,WeatherTracker,2013-09-06 20:06:00,
2013-09-06 14:11:00,89.2,41.5,29.92,ENE,75,7.0,8.0,19,0.00,,,0.00,WeatherTracker,2013-09-06 20:11:00,
2013-09-06 14:16:00,89.7,41.9,29.92,ESE,109,2.0,8.0,19,0.00,,,0.00,WeatherTracker,2013-09-06 20:16:00,
2013-09-06 14:21:00,89.7,41.9,29.91,East,86,1.0,7.0,19,0.00,,,0.00,WeatherTracker,2013-09-06 20:21:00,
2013-09-06 14:26:00,90.1,40.8,29.91,SSE,151,2.0,9.0,18,0.00,,,0.00,WeatherTracker,2013-09-06 20:26:00,
2013-09-06 14:31:00,90.3,41.0,29.91,SSE,157,0.0,9.0,18,0.00,,,0.00,WeatherTracker,2013-09-06 20:31:00,
2013-09-06 14:36:00,90.3,41.0,29.91,ESE,103,2.0,8.0,18,0.00,,,0.00,WeatherTracker,2013-09-06 20:36:00,
2013-09-06 14:41:00,90.4,41.1,29.90,ESE,114,3.0,8.0,18,0.00,,,0.00,WeatherTracker,2013-09-06 20:41:00,
2013-09-06 14:46:00,90.5,42.6,29.90,South,184,3.0,8.0,19,0.00,,,0.00,WeatherTracker,2013-09-06 20:46:00,
2013-09-06 14:51:00,90.5,42.6,29.90,SE,135,6.0,9.0,19,0.00,,,0.00,WeatherTracker,2013-09-06 20:51:00,
2013-09-06 14:56:00,90.5,42.6,29.90,ESE,120,2.0,11.0,19,0.00,,,0.00,WeatherTracker,2013-09-06 20:56:00,
2013-09-06 15:01:00,90.9,42.9,29.90,ENE,61,4.0,14.0,19,0.00,,,0.00,WeatherTracker,2013-09-06 21:01:00,
2013-09-06 15:06:00,90.6,44.0,29.89,SE,128,4.0,14.0,20,0.00,,,0.00,WeatherTracker,2013-09-06 21:06:00,
2013-09-06 15:11:00,90.4,42.5,29.89,SSE,147,5.0,8.0,19,0.00,,,0.00,WeatherTracker,2013-09-06 21:11:00,
2013-09-06 15:17:00,90.5,43.9,29.88,SE,129,3.0,9.0,20,0.00,,,0.00,WeatherTracker,2013-09-06 21:17:00,
2013-09-06 15:22:00,91.0,43.0,29.88,SE,128,10.0,10.0,19,0.00,,,0.00,WeatherTracker,2013-09-06 21:22:00,
2013-09-06 15:27:00,90.4,42.5,29.88,ENE,76,1.0,10.0,19,0.00,,,0.00,WeatherTracker,2013-09-06 21:27:00,
2013-09-06 15:32:00,91.4,43.3,29.88,East,86,6.0,10.0,19,0.00,,,0.00,WeatherTracker,2013-09-06 21:32:00,
2013-09-06 15:37:00,90.7,42.7,29.87,SSW,205,0.0,11.0,19,0.00,,,0.00,WeatherTracker,2013-09-06 21:37:00,
2013-09-06 15:42:00,91.2,43.1,29.87,East,95,1.0,11.0,19,0.00,,,0.00,WeatherTracker,2013-09-06 21:42:00,
2013-09-06 15:47:00,91.3,43.2,29.87,ENE,57,4.0,9.0,19,0.00,,,0.00,WeatherTracker,2013-09-06 21:47:00,
2013-09-06 15:52:00,91.0,43.0,29.87,ESE,113,1.0,11.0,19,0.00,,,0.00,WeatherTracker,2013-09-06 21:52:00,
2013-09-06 15:57:00,91.9,43.7,29.86,ESE,108,2.0,11.0,19,0.00,,,0.00,WeatherTracker,2013-09-06 21:57:00,
2013-09-06 16:02:00,91.2,43.1,29.86,ENE,74,3.0,12.0,19,0.00,,,0.00,WeatherTracker,2013-09-06 22:02:00,
2013-09-06 16:07:00,91.4,41.9,29.86,ESE,103,3.0,12.0,18,0.00,,,0.00,WeatherTracker,2013-09-06 22:07:00,
2013-09-06 16:12:00,91.1,43.1,29.86,East,83,2.0,8.0,19,0.00,,,0.00,WeatherTracker,2013-09-06 22:12:00,
2013-09-06 16:17:00,90.8,41.4,29.86,SSE,154,1.0,9.0,18,0.00,,,0.00,WeatherTracker,2013-09-06 22:17:00,
2013-09-06 16:22:00,90.8,41.4,29.86,ESE,111,8.0,9.0,18,0.00,,,0.00,WeatherTracker,2013-09-06 22:22:00,
2013-09-06 16:27:00,91.5,42.0,29.85,ESE,112,2.0,9.0,18,0.00,,,0.00,WeatherTracker,2013-09-06 22:27:00,
2013-09-06 16:32:00,91.1,41.7,29.85,SE,136,6.0,12.0,18,0.00,,,0.00,WeatherTracker,2013-09-06 22:32:00,
2013-09-06 16:37:00,91.0,41.6,29.85,WSW,255,3.0,12.0,18,0.00,,,0.00,WeatherTracker,2013-09-06 22:37:00,
2013-09-06 16:43:00,90.6,41.3,29.85,NNE,17,0.0,11.0,18,0.00,,,0.00,WeatherTracker,2013-09-06 22:43:00,
2013-09-06 16:48:00,90.7,41.3,29.85,ESE,123,4.0,10.0,18,0.00,,,0.00,WeatherTracker,2013-09-06 22:48:00,
2013-09-06 16:53:00,91.1,41.7,29.85,SE,125,3.0,8.0,18,0.00,,,0.00,WeatherTracker,2013-09-06 22:53:00,
2013-09-06 16:58:00,90.3,41.0,29.85,SE,142,3.0,7.0,18,0.00,,,0.00,WeatherTracker,2013-09-06 22:58:00,
2013-09-06 17:03:00,90.1,42.2,29.84,ENE,78,5.0,7.0,19,0.00,,,0.00,WeatherTracker,2013-09-06 23:03:00,
2013-09-06 17:08:00,91.0,41.6,29.84,East,98,5.0,11.0,18,0.00,,,0.00,WeatherTracker,2013-09-06 23:08:00,
2013-09-06 17:13:00,90.5,41.2,29.84,SSE,158,2.0,11.0,18,0.00,,,0.00,WeatherTracker,2013-09-06 23:13:00,
2013-09-06 17:18:00,89.9,40.7,29.84,East,85,3.0,9.0,18,0.00,,,0.00,WeatherTracker,2013-09-06 23:18:00,
2013-09-06 17:23:00,90.3,42.4,29.84,ENE,76,3.0,9.0,19,0.00,,,0.00,WeatherTracker,2013-09-06 23:23:00,
2013-09-06 17:28:00,89.8,42.0,29.84,East,82,2.0,9.0,19,0.00,,,0.00,WeatherTracker,2013-09-06 23:28:00,
2013-09-06 17:33:00,89.8,42.0,29.84,SE,127,1.0,11.0,19,0.00,,,0.00,WeatherTracker,2013-09-06 23:33:00,
2013-09-06 17:38:00,89.6,41.8,29.84,SSE,168,6.0,11.0,19,0.00,,,0.00,WeatherTracker,2013-09-06 23:38:00,
2013-09-06 17:43:00,89.7,41.9,29.84,SE,135,3.0,7.0,19,0.00,,,0.00,WeatherTracker,2013-09-06 23:43:00,
2013-09-06 17:48:00,89.7,41.9,29.84,SE,127,6.0,9.0,19,0.00,,,0.00,WeatherTracker,2013-09-06 23:48:00,
2013-09-06 17:53:00,89.4,41.7,29.84,East,80,1.0,9.0,19,0.00,,,0.00,WeatherTracker,2013-09-06 23:53:00,
2013-09-06 17:58:00,89.5,41.8,29.84,ENE,78,0.0,8.0,19,0.00,,,0.00,WeatherTracker,2013-09-06 23:58:00,
2013-09-06 18:03:00,89.3,41.6,29.84,ESE,119,3.0,8.0,19,0.00,,,0.00,WeatherTracker,2013-09-07 00:03:00,
2013-09-06 18:08:00,89.3,41.6,29.84,ENE,58,0.0,7.0,19,0.00,,,0.00,WeatherTracker,2013-09-07 00:08:00,
2013-09-06 18:13:00,89.2,41.5,29.84,East,83,3.0,7.0,19,0.00,,,0.00,WeatherTracker,2013-09-07 00:13:00,
2013-09-06 18:18:00,88.8,41.2,29.84,East,95,0.0,8.0,19,0.00,,,0.00,WeatherTracker,2013-09-07 00:18:00,
2013-09-06 18:23:00,88.2,40.7,29.84,SSE,162,1.0,8.0,19,0.00,,,0.00,WeatherTracker,2013-09-07 00:23:00,
2013-09-06 18:28:00,88.4,42.2,29.84,East,79,7.0,8.0,20,0.00,,,0.00,WeatherTracker,2013-09-07 00:28:00,
2013-09-06 18:33:00,88.5,42.3,29.84,East,83,1.0,7.0,20,0.00,,,0.00,WeatherTracker,2013-09-07 00:33:00,
2013-09-06 18:39:00,88.4,40.9,29.84,ESE,111,1.0,7.0,19,0.00,,,0.00,WeatherTracker,2013-09-07 00:39:00,
2013-09-06 18:44:00,88.1,41.9,29.84,East,98,2.0,6.0,20,0.00,,,0.00,WeatherTracker,2013-09-07 00:44:00,
2013-09-06 18:49:00,88.2,42.0,29.83,East,101,1.0,7.0,20,0.00,,,0.00,WeatherTracker,2013-09-07 00:49:00,
2013-09-06 18:54:00,87.8,41.7,29.84,East,93,5.0,7.0,20,0.00,,,0.00,WeatherTracker,2013-09-07 00:54:00,
2013-09-06 18:59:00,87.5,41.5,29.84,East,94,2.0,10.0,20,0.00,,,0.00,WeatherTracker,2013-09-07 00:59:00,
2013-09-06 19:04:00,87.4,41.4,29.84,East,82,3.0,10.0,20,0.00,,,0.00,WeatherTracker,2013-09-07 01:04:00,
2013-09-06 19:09:00,87.3,41.3,29.84,ESE,111,2.0,6.0,20,0.00,,,0.00,WeatherTracker,2013-09-07 01:09:00,
2013-09-06 19:14:00,87.1,41.1,29.84,East,92,1.0,6.0,20,0.00,,,0.00,WeatherTracker,2013-09-07 01:14:00,
2013-09-06 19:19:00,86.8,40.9,29.84,ESE,105,0.0,5.0,20,0.00,,,0.00,WeatherTracker,2013-09-07 01:19:00,
2013-09-06 19:24:00,86.5,41.9,29.84,East,85,0.0,4.0,21,0.00,,,0.00,WeatherTracker,2013-09-07 01:24:00,
2013-09-06 19:29:00,86.2,41.7,29.84,East,92,0.0,3.0,21,0.00,,,0.00,WeatherTracker,2013-09-07 01:29:00,
2013-09-06 19:34:00,85.7,41.2,29.84,East,92,0.0,3.0,21,0.00,,,0.00,WeatherTracker,2013-09-07 01:34:00,
2013-09-06 19:39:00,85.5,41.1,29.84,ENE,78,0.0,4.0,21,0.00,,,0.00,WeatherTracker,2013-09-07 01:39:00,
2013-09-06 19:44:00,85.4,41.0,29.84,ENE,78,0.0,4.0,21,0.00,,,0.00,WeatherTracker,2013-09-07 01:44:00,
2013-09-06 19:49:00,85.3,40.9,29.84,ENE,78,0.0,1.0,21,0.00,,,0.00,WeatherTracker,2013-09-07 01:49:00,
2013-09-06 19:54:00,85.1,42.0,29.84,ENE,78,0.0,1.0,22,0.00,,,0.00,WeatherTracker,2013-09-07 01:54:00,
2013-09-06 19:59:00,84.8,41.7,29.84,ENE,78,0.0,1.0,22,0.00,,,0.00,WeatherTracker,2013-09-07 01:59:00,
2013-09-06 20:04:00,84.6,41.5,29.85,ENE,78,0.0,1.0,22,0.00,,,0.00,WeatherTracker,2013-09-07 02:04:00,
2013-09-06 20:09:00,84.3,41.3,29.85,ENE,78,0.0,1.0,22,0.00,,,0.00,WeatherTracker,2013-09-07 02:09:00,
2013-09-06 20:14:00,84.2,41.2,29.85,ENE,78,0.0,3.0,22,0.00,,,0.00,WeatherTracker,2013-09-07 02:14:00,
2013-09-06 20:19:00,83.6,41.9,29.85,ENE,78,0.0,3.0,23,0.00,,,0.00,WeatherTracker,2013-09-07 02:19:00,
2013-09-06 20:24:00,82.9,42.4,29.85,ENE,78,0.0,1.0,24,0.00,,,0.00,WeatherTracker,2013-09-07 02:24:00,
2013-09-06 20:29:00,81.5,43.3,29.85,ENE,78,0.0,1.0,26,0.00,,,0.00,WeatherTracker,2013-09-07 02:29:00,
2013-09-06 20:34:00,80.8,42.7,29.86,ENE,78,0.0,1.0,26,0.00,,,0.00,WeatherTracker,2013-09-07 02:34:00,
2013-09-06 20:40:00,80.4,43.3,29.86,ENE,78,0.0,1.0,27,0.00,,,0.00,WeatherTracker,2013-09-07 02:40:00,
2013-09-06 20:45:00,80.8,43.7,29.86,ENE,78,0.0,2.0,27,0.00,,,0.00,WeatherTracker,2013-09-07 02:45:00,
2013-09-06 20:50:00,81.1,42.9,29.86,ENE,78,1.0,2.0,26,0.00,,,0.00,WeatherTracker,2013-09-07 02:50:00,
2013-09-06 20:55:00,80.7,43.6,29.86,ENE,78,0.0,2.0,27,0.00,,,0.00,WeatherTracker,2013-09-07 02:55:00,
2013-09-06 21:00:00,80.1,43.1,29.86,ENE,78,0.0,2.0,27,0.00,,,0.00,WeatherTracker,2013-09-07 03:00:00,
2013-09-06 21:05:00,80.1,44.0,29.86,NW,316,0.0,2.0,28,0.00,,,0.00,WeatherTracker,2013-09-07 03:05:00,
2013-09-06 21:10:00,79.4,44.3,29.86,NW,316,1.0,2.0,29,0.00,,,0.00,WeatherTracker,2013-09-07 03:10:00,
2013-09-06 21:15:00,79.5,43.5,29.87,NW,316,0.0,2.0,28,0.00,,,0.00,WeatherTracker,2013-09-07 03:15:00,
2013-09-06 21:20:00,80.1,44.0,29.87,NW,316,1.0,2.0,28,0.00,,,0.00,WeatherTracker,2013-09-07 03:20:00,
2013-09-06 21:25:00,79.6,43.6,29.87,NW,316,2.0,2.0,28,0.00,,,0.00,WeatherTracker,2013-09-07 03:25:00,
2013-09-06 21:30:00,80.0,43.9,29.87,WNW,303,2.0,4.0,28,0.00,,,0.00,WeatherTracker,2013-09-07 03:30:00,
2013-09-06 21:35:00,79.8,42.8,29.87,NW,304,0.0,4.0,27,0.00,,,0.00,WeatherTracker,2013-09-07 03:35:00,
2013-09-06 21:40:00,79.8,42.8,29.88,NNW,346,0.0,3.0,27,0.00,,,0.00,WeatherTracker,2013-09-07 03:40:00,
2013-09-06 21:45:00,80.0,43.0,29.87,NNW,346,3.0,4.0,27,0.00,,,0.00,WeatherTracker,2013-09-07 03:45:00,
2013-09-06 21:50:00,79.9,42.9,29.87,NNW,343,1.0,4.0,27,0.00,,,0.00,WeatherTracker,2013-09-07 03:50:00,
2013-09-06 21:55:00,79.6,43.6,29.88,NNW,340,2.0,4.0,28,0.00,,,0.00,WeatherTracker,2013-09-07 03:55:00,
2013-09-06 22:00:00,79.6,42.7,29.88,NNW,329,2.0,5.0,27,0.00,,,0.00,WeatherTracker,2013-09-07 04:00:00,
2013-09-06 22:01:00,79.6,42.7,29.88,NNW,329,2.0,5.0,27,0.00,,,0.00,WeatherTracker,2013-09-07 04:01:00,
2013-09-06 22:03:00,79.6,42.7,29.88,NNW,331,2.0,5.0,27,0.00,,,0.00,WeatherTracker,2013-09-07 04:03:00,
2013-09-06 22:04:00,79.6,42.7,29.88,NNW,331,2.0,5.0,27,0.00,,,0.00,WeatherTracker,2013-09-07 04:04:00,
2013-09-06 22:09:00,79.6,41.7,29.89,NNE,19,5.0,5.0,26,0.00,,,0.00,WeatherTracker,2013-09-07 04:09:00,
2013-09-06 22:14:00,79.8,41.8,29.89,North,360,2.0,5.0,26,0.00,,,0.00,WeatherTracker,2013-09-07 04:14:00,
2013-09-06 22:19:00,79.9,41.9,29.89,NNE,18,2.0,5.0,26,0.00,,,0.00,WeatherTracker,2013-09-07 04:19:00,
2013-09-06 22:24:00,79.7,42.7,29.90,North,5,1.0,5.0,27,0.00,,,0.00,WeatherTracker,2013-09-07 04:24:00,
2013-09-06 22:29:00,79.6,42.7,29.90,North,360,1.0,4.0,27,0.00,,,0.00,WeatherTracker,2013-09-07 04:29:00,
2013-09-06 22:34:00,79.6,43.6,29.90,NNE,13,2.0,3.0,28,0.00,,,0.00,WeatherTracker,2013-09-07 04:34:00,
2013-09-06 22:39:00,79.6,44.5,29.90,NE,41,1.0,4.0,29,0.00,,,0.00,WeatherTracker,2013-09-07 04:39:00,
2013-09-06 22:44:00,79.7,45.5,29.89,North,9,1.0,4.0,30,0.00,,,0.00,WeatherTracker,2013-09-07 04:44:00,
2013-09-06 22:49:00,79.5,45.3,29.90,North,355,4.0,4.0,30,0.00,,,0.00,WeatherTracker,2013-09-07 04:49:00,
2013-09-06 22:54:00,79.5,46.2,29.90,North,11,1.0,5.0,31,0.00,,,0.00,WeatherTracker,2013-09-07 04:54:00,
2013-09-06 22:59:00,79.4,46.9,29.90,North,11,2.0,5.0,32,0.00,,,0.00,WeatherTracker,2013-09-07 04:59:00,
2013-09-06 23:04:00,79.4,46.9,29.90,NNE,25,2.0,4.0,32,0.00,,,0.00,WeatherTracker,2013-09-07 05:04:00,
2013-09-06 23:10:00,79.3,46.9,29.90,NNE,21,2.0,4.0,32,0.00,,,0.00,WeatherTracker,2013-09-07 05:10:00,
2013-09-06 23:15:00,79.1,47.5,29.90,North,9,0.0,3.0,33,0.00,,,0.00,WeatherTracker,2013-09-07 05:15:00,
2013-09-06 23:20:00,78.9,47.3,29.90,North,9,0.0,3.0,33,0.00,,,0.00,WeatherTracker,2013-09-07 05:20:00,
2013-09-06 23:25:00,78.5,47.8,29.91,North,349,0.0,3.0,34,0.00,,,0.00,WeatherTracker,2013-09-07 05:25:00,
2013-09-06 23:30:00,78.5,47.8,29.91,NNE,26,2.0,3.0,34,0.00,,,0.00,WeatherTracker,2013-09-07 05:30:00,
2013-09-06 23:35:00,78.5,47.8,29.91,NNE,15,1.0,4.0,34,0.00,,,0.00,WeatherTracker,2013-09-07 05:35:00,
2013-09-06 23:40:00,78.5,47.8,29.91,North,355,1.0,5.0,34,0.00,,,0.00,WeatherTracker,2013-09-07 05:40:00,
2013-09-06 23:45:00,78.3,47.6,29.91,North,355,3.0,5.0,34,0.00,,,0.00,WeatherTracker,2013-09-07 05:45:00,
2013-09-06 23:50:00,78.1,47.4,29.91,NNE,16,3.0,4.0,34,0.00,,,0.00,WeatherTracker,2013-09-07 05:50:00,
2013-09-06 23:55:00,77.9,47.2,29.91,NNW,345,1.0,4.0,34,0.00,,,0.00,WeatherTracker,2013-09-07 05:55:00,